Location: Bois de la Silve
(44.4667°N, 6.7833°E)
Time: 07:54:53
(UTC+00:00)

ADEOS II - Pass Details

Date: 14 July 2020
Orbit: 799 x 801 km, 98.5° (Epoch: 14 August)

Event Time Altitude Azimuth Distance (km) Brightness Sun altitude
Rises 02:57:55 0° 4° (N) 3,321 6.1 -9.8°
Reaches altitude 10° 03:00:29 10° 355° (N) 2,386 5.1 -9.5°
Maximum altitude 03:05:01 31° 295° (WNW) 1,390 3.2 -8.9°
Drops below altitude 10° 03:09:33 10° 235° (SW) 2,371 3.9 -8.3°
Enters shadow 03:09:34 10° 235° (SW) 2,373 3.9 -8.3°
